Date String (YYYY-MM-DD hh:mm:ss) UTC,Instrument flags,Ambient pressure (hPa),Sample flow (lpm),Bypass flow (lpm),Sample temperature (°C),Ambient temperature (°C),ASC tube jacket temperature (°C),LED temperature (°C),Box temperature (°C),Sample RH (%),Span deviation,Mass concentration (μg/m³),Mass concentration (μg/m³),Mass concentration (μg/m³)
DateTimeUTC,F1_M11,P_M11,Q1_M11,Q2_M11,T1_M11,T2_M11,T3_M11,T4_M11,T5_M11,U1_M11,ZSPAN_M11,X0_M11,X2_M11,X1_M11
2021-09-05 03:00:00,,0830.1,4.98,0.00,29.6,28.7,00.0,38.5,31.4,23.9,0001.3,0023.76,0017.06,0015.95
2021-09-05 03:01:00,,0830.1,5.01,0.00,29.6,28.8,00.0,38.5,31.4,23.8,0001.4,0023.68,0017.08,0015.96
2021-09-05 03:02:00,,0830.1,5.00,0.00,29.6,27.6,00.0,38.5,31.1,23.6,0001.3,0023.23,0017.06,0015.95
2021-09-05 03:03:00,,0830.1,4.99,0.00,29.4,26.2,00.0,38.5,30.8,23.8,0001.3,0023.03,0016.97,0015.92
2021-09-05 03:04:00,,0830.1,5.01,0.00,29.4,26.3,00.0,38.5,30.8,24.0,0001.5,0022.47,0016.89,0015.90
2021-09-05 03:05:00,,0830.1,5.00,0.00,29.3,26.7,00.0,38.5,30.8,24.3,0001.7,0022.87,0016.94,0015.93
2021-09-05 03:06:00,,0830.1,5.00,0.00,29.3,27.1,00.0,38.4,30.9,24.4,0001.6,0023.28,0016.98,0015.93
2021-09-05 03:07:00,,0830.1,4.99,0.00,29.3,27.4,00.0,38.4,31.0,23.8,0001.5,0023.23,0016.96,0015.94
2021-09-05 03:08:00,,0830.1,4.99,0.00,29.3,27.7,00.0,38.4,31.1,23.4,0001.5,0023.20,0016.97,0015.93
2021-09-05 03:09:00,,0830.1,5.02,0.00,29.4,28.0,00.0,38.4,31.1,23.1,0001.6,0022.97,0016.99,0015.92
2021-09-05 03:10:00,,0830.1,5.00,0.00,29.4,28.2,00.0,38.4,31.2,23.5,0001.5,0023.25,0016.97,0015.89
2021-09-05 03:11:00,,0830.1,5.00,0.00,29.4,28.3,00.0,38.4,31.2,23.7,0001.6,0023.43,0016.98,0015.89
2021-09-05 03:12:00,,0830.1,4.98,0.00,29.5,28.5,00.0,38.4,31.3,23.5,0001.6,0023.54,0016.98,0015.88
2021-09-05 03:13:00,,0830.1,5.01,0.00,29.5,28.6,00.0,38.5,31.3,23.8,0001.7,0023.58,0016.95,0015.88
2021-09-05 03:14:00,,0830.2,4.99,0.00,29.6,28.7,00.0,38.5,31.4,23.5,0001.7,0024.27,0016.99,0015.89
2021-09-05 03:15:00,,0830.1,5.00,0.00,29.6,28.8,00.0,38.5,31.4,23.3,0001.5,0024.25,0016.97,0015.90
2021-09-05 03:16:00,,0830.1,5.01,0.00,29.6,28.8,00.0,38.6,31.5,23.2,0001.6,0024.01,0016.91,0015.86
2021-09-05 03:17:00,,0830.2,4.99,0.00,29.6,27.5,00.0,38.6,31.2,23.1,0001.6,0023.83,0016.89,0015.88
2021-09-05 03:18:00,,0830.1,5.00,0.00,29.4,25.6,00.0,38.5,30.6,23.1,0001.6,0024.36,0016.90,0015.87
2021-09-05 03:19:00,,0830.1,5.00,0.00,29.3,25.2,00.0,38.5,30.4,23.3,0001.7,0024.77,0016.88,0015.87
2021-09-05 03:20:00,,0830.1,5.01,0.00,29.2,25.6,00.0,38.4,30.6,23.4,0001.8,0025.41,0016.89,0015.89
2021-09-05 03:21:00,,0830.1,5.00,0.00,29.1,26.2,00.0,38.4,30.7,23.3,0002.0,0025.54,0016.91,0015.92
2021-09-05 03:22:00,,0830.1,5.01,0.00,29.1,26.7,00.0,38.3,30.7,23.0,0002.0,0024.73,0016.83,0015.90
2021-09-05 03:23:00,,0830.1,4.99,0.00,29.1,27.1,00.0,38.3,30.8,22.9,0001.9,0024.48,0016.78,0015.88
2021-09-05 03:24:00,,0830.0,5.01,0.00,29.1,27.4,00.0,38.3,30.9,22.8,0001.9,0024.36,0016.79,0015.86
2021-09-05 03:25:00,,0830.0,5.00,0.00,29.2,27.7,00.0,38.3,30.9,22.7,0001.8,0023.63,0016.76,0015.84
2021-09-05 03:26:00,,0830.1,5.00,0.00,29.2,27.9,00.0,38.3,31.0,22.7,0001.8,0023.85,0016.76,0015.83
2021-09-05 03:27:00,,0830.1,5.00,0.00,29.3,28.1,00.0,38.3,31.1,22.8,0001.5,0023.75,0016.69,0015.78
2021-09-05 03:28:00,,0830.1,5.00,0.00,29.3,28.2,00.0,38.3,31.1,22.8,0001.4,0023.70,0016.62,0015.73
2021-09-05 03:29:00,,0830.1,5.00,0.00,29.4,28.4,00.0,38.4,31.2,22.9,0001.7,0023.72,0016.61,0015.71
2021-09-05 03:30:00,,0830.1,5.01,0.00,29.4,28.5,00.0,38.4,31.2,22.9,0001.7,0023.52,0016.59,0015.67
2021-09-05 03:31:00,,0830.1,4.98,0.00,29.4,28.6,00.0,38.4,31.3,22.8,0001.6,0023.35,0016.57,0015.61
2021-09-05 03:32:00,,0830.1,5.01,0.00,29.5,28.7,00.0,38.4,31.3,22.8,0001.5,0022.99,0016.56,0015.57
2021-09-05 03:33:00,,0830.1,4.99,0.00,29.5,28.8,00.0,38.4,31.4,22.9,0001.4,0023.10,0016.58,0015.56
2021-09-05 03:34:00,,0830.1,5.00,0.00,29.6,28.8,00.0,38.5,31.4,22.8,0001.4,0023.20,0016.59,0015.53
2021-09-05 03:35:00,,0830.1,4.99,0.00,29.6,28.9,00.0,38.5,31.4,22.9,0001.8,0023.44,0016.54,0015.50
2021-09-05 03:36:00,,0830.1,5.01,0.00,29.6,28.7,00.0,38.5,31.4,23.3,0002.0,0023.63,0016.52,0015.55
2021-09-05 03:37:00,,0830.1,4.99,0.00,29.6,27.1,00.0,38.5,31.0,23.8,0002.1,0023.37,0016.51,0015.57
2021-09-05 03:38:00,,0830.1,5.01,0.00,29.4,26.2,00.0,38.5,30.8,24.0,0002.1,0023.28,0016.57,0015.63
2021-09-05 03:39:00,,0830.1,4.99,0.00,29.4,26.4,00.0,38.5,30.8,23.7,0002.0,0022.98,0016.63,0015.68
2021-09-05 03:40:00,,0830.1,5.00,0.00,29.3,26.8,00.0,38.5,30.9,23.4,0001.9,0023.64,0016.65,0015.69
2021-09-05 03:41:00,,0830.1,5.00,0.00,29.3,27.2,00.0,38.4,31.0,23.6,0001.8,0023.94,0016.68,0015.73
2021-09-05 03:42:00,,0830.1,5.01,0.00,29.3,27.6,00.0,38.4,31.0,23.7,0001.9,0023.71,0016.68,0015.77
2021-09-05 03:43:00,,0830.1,5.00,0.00,29.3,27.8,00.0,38.4,31.1,23.9,0002.0,0023.81,0016.68,0015.81
2021-09-05 03:44:00,,0830.1,4.99,0.00,29.4,28.1,00.0,38.4,31.1,23.8,0002.1,0023.80,0016.72,0015.86
2021-09-05 03:45:00,,0830.1,4.99,0.00,29.4,28.2,00.0,38.4,31.2,23.4,0002.1,0023.75,0016.76,0015.92
2021-09-05 03:46:00,,0830.1,5.00,0.00,29.5,28.4,00.0,38.5,31.3,23.2,0002.2,0023.50,0016.77,0015.95
2021-09-05 03:47:00,,0830.1,5.00,0.00,29.5,28.5,00.0,38.5,31.3,23.1,0002.4,0023.89,0016.74,0015.89
2021-09-05 03:48:00,,0830.1,5.00,0.00,29.5,28.6,00.0,38.5,31.4,23.1,0002.3,0024.15,0016.74,0015.88
2021-09-05 03:49:00,,0830.1,5.00,0.00,29.6,28.7,00.0,38.5,31.4,23.1,0002.5,0024.51,0016.77,0015.85
2021-09-05 03:50:00,,0830.1,5.00,0.00,29.6,28.8,00.0,38.6,31.5,23.2,0002.8,0024.63,0016.76,0015.81
2021-09-05 03:51:00,,0830.1,4.98,0.00,29.7,28.9,00.0,38.6,31.5,23.1,0002.9,0024.28,0016.73,0015.78
2021-09-05 03:52:00,,0830.1,5.00,0.00,29.7,28.7,00.0,38.6,31.5,23.0,0003.0,0023.56,0016.72,0015.74
2021-09-05 03:53:00,,0830.1,5.00,0.00,29.6,26.9,00.0,38.6,31.0,23.1,0002.9,0023.47,0016.68,0015.71
2021-09-05 03:54:00,,0830.1,5.00,0.00,29.4,25.3,00.0,38.5,30.6,23.2,0002.8,0023.41,0016.61,0015.64
2021-09-05 03:55:00,,0830.1,5.00,0.00,29.3,25.3,00.0,38.5,30.5,23.4,0002.7,0023.92,0016.55,0015.58
2021-09-05 03:56:00,,0830.1,5.01,0.00,29.2,25.8,00.0,38.5,30.6,23.8,0002.4,0023.93,0016.50,0015.51
2021-09-05 03:57:00,,0830.1,5.00,0.00,29.1,26.3,00.0,38.4,30.7,24.2,0002.0,0024.48,0016.51,0015.49
2021-09-05 03:58:00,,0830.1,5.00,0.00,29.1,26.8,00.0,38.4,30.8,23.9,0001.8,0024.05,0016.52,0015.50
2021-09-05 03:59:00,,0830.1,5.00,0.00,29.2,27.2,00.0,38.4,30.8,23.8,0001.8,0023.67,0016.51,0015.48
